Wetterdaten: aktuell Sonntag, 23.02.2020 19:55
Datum Zeit Temp. A. Feuchte A. Regen Windböen
23.02.2020 19:55 15,1 °C 54 % 0,0 l/m² 30,6 km/h (5 Bft)
23.02.2020 18:55 15,1 °C 54 % 0,0 l/m² 19,3 km/h (3 Bft)
23.02.2020 17:55 15,1 °C 54 % 0,0 l/m² 20,9 km/h (4 Bft)
23.02.2020 16:55 15,4 °C 51 % 0,0 l/m² 27,4 km/h (4 Bft)
23.02.2020 15:55 15,3 °C 50 % 0,0 l/m² 27,4 km/h (4 Bft)
23.02.2020 14:55 15,4 °C 49 % 0,0 l/m² 30,6 km/h (5 Bft)
23.02.2020 13:55 14,9 °C 43 % 0,0 l/m² 22,5 km/h (4 Bft)
23.02.2020 12:55 13,9 °C 40 % 0,0 l/m² 19,3 km/h (3 Bft)
23.02.2020 11:55 12,7 °C 43 % 0,0 l/m² 19,3 km/h (3 Bft)
23.02.2020 10:55 12,3 °C 45 % 0,0 l/m² 22,5 km/h (4 Bft)
23.02.2020 09:55 11,4 °C 52 % 0,0 l/m² 30,6 km/h (5 Bft)
23.02.2020 08:55 11,2 °C 53 % 0,0 l/m² 20,9 km/h (4 Bft)
23.02.2020 07:55 11,2 °C 55 % 0,0 l/m² 32,2 km/h (5 Bft)
23.02.2020 06:55 10,3 °C 61 % 0,0 l/m² 25,7 km/h (4 Bft)
23.02.2020 05:55 9,4 °C 67 % 0,2 l/m² 14,5 km/h (3 Bft)
23.02.2020 04:55 9,2 °C 70 % 0,4 l/m² 12,9 km/h (3 Bft)
23.02.2020 03:55 10,7 °C 55 % 0,0 l/m² 11,3 km/h (2 Bft)
23.02.2020 02:55 10,9 °C 51 % 0,0 l/m² 17,7 km/h (3 Bft)
23.02.2020 01:55 11,1 °C 51 % 0,0 l/m² 24,1 km/h (4 Bft)
23.02.2020 00:55 11,1 °C 50 % 0,0 l/m² 22,5 km/h (4 Bft)
23.02.2020 00:00 11,3 °C 48 % 0,0 l/m² 24,1 km/h (4 Bft)
_ Min-Zeit 06:10 12:25 - 03:55
Minimum _ 9,1 °C 40 % - 11,3 km/h (2 Bft)
_ Max-Zeit 16:35 04:50 04:30 12:45
Maximum _ 15,6 °C 70 % 0,2 l/m² 38,6 km/h
SW (5 Bft)
Durchschnitt _ 12,5 °C 52 % #0,7 l/m² 23,2 km/h (4 Bft)